When you browse on this site, cookies collect data to enhance your experience and personalize the content and advertising you see.
Visit our Privacy Policy to learn more. By continuing to use the site, you agree to this use of cookies and data.
  • în România
  • Lista ţărilor
  • Pe 7 zile
  • Temperatura apei
  • Hartă satelitară
  • Meteo pe hartă
  • Widget-uri
  • user-avatar
    Intrare

    Meteo pe oră la Maskat

    Astăzi, 20 Iulie, Sâmbătă

    Timp Temperatura Precipitaţii Vânt Presiune Umiditate
    00:00 +31°C° 0 mm 3 m/s 744 mmHg 75%
    01:00 +31°C° 0 mm 3 m/s 744 mmHg 75%
    02:00 +30°C° 0 mm 3 m/s 744 mmHg 79%
    03:00 +30°C° 0 mm 3 m/s 744 mmHg 83%
    04:00 +29°C° 0 mm 3 m/s 743 mmHg 85%
    05:00 +29°C° 0 mm 3 m/s 744 mmHg 84%
    06:00 +30°C° 0 mm 3 m/s 744 mmHg 82%
    07:00 +30°C° 0 mm 3 m/s 745 mmHg 80%
    08:00 +33°C° 0 mm 4 m/s 745 mmHg 72%
    09:00 +34°C° 0 mm 4 m/s 745 mmHg 63%
    10:00 +36°C° 0 mm 4 m/s 745 mmHg 55%
    11:00 +37°C° 0 mm 5 m/s 745 mmHg 53%
    12:00 +39°C° 0 mm 5 m/s 745 mmHg 51%
    13:00 +39°C° 0 mm 6 m/s 745 mmHg 48%
    14:00 +39°C° 0 mm 6 m/s 744 mmHg 48%
    15:00 +39°C° 0 mm 6 m/s 744 mmHg 48%
    16:00 +39°C° 0 mm 7 m/s 743 mmHg 48%
    17:00 +36°C° 0 mm 6 m/s 743 mmHg 53%
    18:00 +35°C° 0 mm 6 m/s 743 mmHg 58%
    19:00 +34°C° 0 mm 6 m/s 744 mmHg 63%
    20:00 +33°C° 0 mm 5 m/s 744 mmHg 63%
    21:00 +33°C° 0 mm 5 m/s 744 mmHg 62%
    22:00 +33°C° 0 mm 4 m/s 744 mmHg 62%
    23:00 +33°C° 0 mm 4 m/s 744 mmHg 63%

    Mâine, 21 Iulie, Duminică

    Timp Temperatura Precipitaţii Vânt Presiune Umiditate
    00:00 +33°C° 0 mm 4 m/s 744 mmHg 64%
    01:00 +32°C° 0 mm 4 m/s 744 mmHg 65%
    02:00 +32°C° 0 mm 4 m/s 744 mmHg 66%
    03:00 +32°C° 0 mm 5 m/s 744 mmHg 67%
    04:00 +32°C° 0 mm 5 m/s 744 mmHg 68%
    05:00 +32°C° 0 mm 4 m/s 744 mmHg 69%
    06:00 +32°C° 0 mm 4 m/s 745 mmHg 70%
    07:00 +31°C° 0 mm 3 m/s 745 mmHg 71%
    08:00 +33°C° 0 mm 3 m/s 745 mmHg 66%
    09:00 +35°C° 0 mm 4 m/s 745 mmHg 61%
    10:00 +36°C° 0 mm 4 m/s 745 mmHg 55%
    11:00 +36°C° 0 mm 5 m/s 745 mmHg 54%
    12:00 +37°C° 0 mm 5 m/s 745 mmHg 52%
    13:00 +38°C° 0 mm 6 m/s 745 mmHg 51%
    14:00 +39°C° 0 mm 6 m/s 744 mmHg 49%
    15:00 +39°C° 0 mm 6 m/s 743 mmHg 48%
    16:00 +39°C° 0 mm 7 m/s 743 mmHg 46%
    17:00 +38°C° 0 mm 6 m/s 743 mmHg 50%
    18:00 +36°C° 0 mm 6 m/s 743 mmHg 54%
    19:00 +34°C° 0 mm 6 m/s 744 mmHg 57%
    20:00 +34°C° 0 mm 5 m/s 744 mmHg 59%
    21:00 +34°C° 0 mm 5 m/s 744 mmHg 60%
    22:00 +33°C° 0 mm 5 m/s 745 mmHg 61%
    23:00 +33°C° 0 mm 5 m/s 745 mmHg 61%

    Poimâine, 22 Iulie, Luni

    Timp Temperatura Precipitaţii Vânt Presiune Umiditate
    00:00 +33°C° 0 mm 4 m/s 744 mmHg 61%
    01:00 +33°C° 0 mm 4 m/s 744 mmHg 61%
    02:00 +33°C° 0 mm 4 m/s 744 mmHg 62%
    03:00 +31°C° 0 mm 3 m/s 743 mmHg 64%
    04:00 +31°C° 0 mm 3 m/s 743 mmHg 65%
    05:00 +31°C° 0 mm 3 m/s 744 mmHg 68%
    06:00 +31°C° 0 mm 3 m/s 744 mmHg 70%
    07:00 +31°C° 0 mm 3 m/s 744 mmHg 73%
    08:00 +33°C° 0 mm 3 m/s 745 mmHg 67%
    09:00 +35°C° 0 mm 4 m/s 745 mmHg 61%
    10:00 +36°C° 0 mm 4 m/s 745 mmHg 55%
    11:00 +37°C° 0 mm 5 m/s 744 mmHg 53%
    12:00 +37°C° 0 mm 5 m/s 744 mmHg 50%
    13:00 +39°C° 0 mm 6 m/s 744 mmHg 47%
    14:00 +39°C° 0 mm 6 m/s 743 mmHg 46%
    15:00 +39°C° 0 mm 6 m/s 743 mmHg 44%
    16:00 +39°C° 0 mm 6 m/s 742 mmHg 43%
    17:00 +37°C° 0 mm 5 m/s 742 mmHg 48%
    18:00 +36°C° 0 mm 5 m/s 742 mmHg 52%
    19:00 +34°C° 0 mm 5 m/s 743 mmHg 56%
    20:00 +34°C° 0 mm 5 m/s 743 mmHg 58%
    21:00 +34°C° 0 mm 5 m/s 743 mmHg 60%
    22:00 +33°C° 0 mm 6 m/s 743 mmHg 62%
    23:00 +33°C° 0 mm 5 m/s 743 mmHg 61%

    23 Iulie, Marţi

    Timp Temperatura Precipitaţii Vânt Presiune Umiditate
    00:00 +33°C° 0 mm 4 m/s 743 mmHg 60%
    01:00 +33°C° 0 mm 3 m/s 742 mmHg 59%
    02:00 +33°C° 0 mm 3 m/s 742 mmHg 62%
    03:00 +31°C° 0 mm 3 m/s 742 mmHg 64%
    04:00 +31°C° 0 mm 3 m/s 742 mmHg 66%
    05:00 +31°C° 0 mm 3 m/s 743 mmHg 67%
    06:00 +31°C° 0 mm 3 m/s 743 mmHg 68%
    07:00 +31°C° 0 mm 2 m/s 744 mmHg 69%
    08:00 +33°C° 0 mm 3 m/s 744 mmHg 64%
    09:00 +35°C° 0 mm 4 m/s 744 mmHg 58%
    10:00 +36°C° 0 mm 5 m/s 744 mmHg 53%
    11:00 +37°C° 0 mm 5 m/s 744 mmHg 49%
    12:00 +39°C° 0 mm 6 m/s 743 mmHg 45%
    13:00 +40°C° 0 mm 6 m/s 743 mmHg 41%
    14:00 +40°C° 0 mm 6 m/s 742 mmHg 42%
    15:00 +39°C° 0 mm 7 m/s 742 mmHg 43%
    16:00 +39°C° 0 mm 7 m/s 742 mmHg 44%
    17:00 +38°C° 0 mm 7 m/s 742 mmHg 48%
    18:00 +36°C° 0 mm 6 m/s 742 mmHg 51%
    19:00 +35°C° 0 mm 6 m/s 742 mmHg 54%
    20:00 +35°C° 0 mm 5 m/s 743 mmHg 56%
    21:00 +34°C° 0 mm 5 m/s 743 mmHg 57%
    22:00 +34°C° 0 mm 4 m/s 743 mmHg 59%
    23:00 +34°C° 0 mm 4 m/s 743 mmHg 59%

    24 Iulie, Miercuri

    Timp Temperatura Precipitaţii Vânt Presiune Umiditate
    00:00 +33°C° 0 mm 3 m/s 743 mmHg 60%
    01:00 +33°C° 0 mm 3 m/s 742 mmHg 61%
    02:00 +32°C° 0 mm 2 m/s 742 mmHg 63%
    03:00 +31°C° 0 mm 2 m/s 742 mmHg 65%
    04:00 +31°C° 0 mm 2 m/s 742 mmHg 67%
    05:00 +31°C° 0 mm 2 m/s 743 mmHg 66%
    06:00 +32°C° 0 mm 2 m/s 743 mmHg 66%
    07:00 +32°C° 0 mm 2 m/s 744 mmHg 66%
    08:00 +34°C° 0 mm 2 m/s 744 mmHg 62%
    09:00 +35°C° 0 mm 3 m/s 744 mmHg 59%
    10:00 +36°C° 0 mm 3 m/s 744 mmHg 55%
    11:00 +37°C° 0 mm 3 m/s 744 mmHg 53%
    12:00 +38°C° 0 mm 4 m/s 743 mmHg 50%
    13:00 +38°C° 0 mm 4 m/s 743 mmHg 47%
    14:00 +38°C° 0 mm 4 m/s 742 mmHg 47%
    15:00 +38°C° 0 mm 4 m/s 742 mmHg 47%
    16:00 +38°C° 0 mm 3 m/s 741 mmHg 46%
    17:00 +37°C° 0 mm 3 m/s 742 mmHg 49%
    18:00 +36°C° 0 mm 2 m/s 742 mmHg 51%
    19:00 +35°C° 0 mm 2 m/s 742 mmHg 54%
    20:00 +34°C° 0 mm 1 m/s 742 mmHg 53%
    21:00 +34°C° 0 mm 1 m/s 743 mmHg 53%
    22:00 +34°C° 0 mm 1 m/s 743 mmHg 53%
    23:00 +33°C° 0 mm 1 m/s 743 mmHg 56%

    25 Iulie, Joi

    Timp Temperatura Precipitaţii Vânt Presiune Umiditate
    00:00 +34°C° 0 mm 2 m/s 743 mmHg 59%
    01:00 +32°C° 0 mm 2 m/s 743 mmHg 61%
    02:00 +32°C° 0 mm 2 m/s 743 mmHg 64%
    03:00 +31°C° 0 mm 2 m/s 742 mmHg 66%
    04:00 +31°C° 0 mm 2 m/s 742 mmHg 68%
    05:00 +31°C° 0 mm 2 m/s 743 mmHg 66%
    06:00 +32°C° 0 mm 2 m/s 743 mmHg 64%
    07:00 +32°C° 0 mm 2 m/s 743 mmHg 61%
    08:00 +35°C° 0 mm 2 m/s 744 mmHg 55%
    09:00 +37°C° 0 mm 2 m/s 744 mmHg 48%
    10:00 +39°C° 0 mm 3 m/s 744 mmHg 42%
    11:00 +39°C° 0 mm 3 m/s 743 mmHg 43%
    12:00 +39°C° 0 mm 3 m/s 743 mmHg 44%
    13:00 +39°C° 0 mm 3 m/s 742 mmHg 44%
    14:00 +39°C° 0 mm 3 m/s 742 mmHg 46%
    15:00 +39°C° 0 mm 2 m/s 742 mmHg 47%
    16:00 +38°C° 0 mm 2 m/s 741 mmHg 49%
    17:00 +37°C° 0 mm 2 m/s 741 mmHg 52%
    18:00 +36°C° 0 mm 2 m/s 741 mmHg 54%
    19:00 +35°C° 0 mm 2 m/s 741 mmHg 57%
    20:00 +36°C° 0 mm 2 m/s 742 mmHg 55%
    21:00 +35°C° 0 mm 1 m/s 742 mmHg 52%
    22:00 +35°C° 0 mm 1 m/s 742 mmHg 49%
    23:00 +36°C° 0 mm 2 m/s 742 mmHg 52%
    Arată mai mult